Flag for Micronesia Weather past 2 weeks in Colonia, Yap, Micronesia

Now
78 °F

Passing clouds.


Feels Like: 81 °F
Forecast: 78 / 85 °F
Wind: 3 mph from North

Location: Yap Island

Current Time: Jan 31, 2015 at 3:44:31 AM

Latest Report: Jan 31, 2015 at 2:54 AM


Visibility: 12 mi

Pressure: 29.83 "Hg

Humidity: 87%

Dew point: 74 °F

Location of ColoniaLocation

Historic Weather in Colonia — Graph

°F

Colonia temperature yesterday

Maximum temperature yesterday: 87 °F (at 1:50 PM)
Minimum temperature yesterday: 78 °F (at 12:50 AM)
Average temperature yesterday: 81 °F

Past Weeks' High & Low Weather Summary

 TemperatureHumidityPressure
High88 °F (Jan 23, 1:50 PM)96% (Jan 16, 6:51 PM)29.96 "Hg (Jan 16, 6:51 PM)
Low50 °F (Jan 21, 4:51 AM)23% (Jan 21, 4:51 AM)29.75 "Hg (Jan 16, 3:53 AM)
Average81 °F84%29.86 "Hg
* Reported Jan 16 2:52 AM — Jan 31 2:54 AM, Colonia, Weather by CustomWeather, © 2014

Note: Actual official high and low records may vary slightly from our data, if they occured in-between our weather recording intervals... More about our weather records

Advertising

Colonia weather history for previous 24 hours

 ConditionsComfort  
Time TempWeatherWind HumidityBarometerVisibility
2:54 AM
Jan 31
78 °FPassing clouds.3 mph87%29.83 "Hg12 mi
1:51 AM78 °FPassing clouds.2 mph86%29.85 "Hg12 mi
12:51 AM79 °FOvercast.3 mph86%29.86 "Hg12 mi
11:50 PM
Jan 30
79 °FOvercast.3 mph87%29.87 "Hg12 mi
10:50 PM78 °FOvercast.2 mph87%29.86 "Hg12 mi
9:50 PM78 °FOvercast.2 mph87%29.86 "Hg12 mi
8:51 PM79 °FOvercast.3 mph86%29.85 "Hg12 mi
7:52 PM79 °FPassing clouds.2 mph82%29.83 "Hg12 mi
6:51 PM81 °FPartly sunny.3 mph78%29.82 "Hg12 mi
5:51 PM84 °FPartly sunny.8 mph70%29.80 "Hg12 mi
4:50 PM85 °FBroken clouds.8 mph69%29.78 "Hg12 mi
3:52 PM86 °FBroken clouds.9 mph70%29.78 "Hg12 mi
2:50 PM86 °FBroken clouds.9 mph70%29.80 "Hg12 mi
1:50 PM87 °FBroken clouds.9 mph69%29.81 "Hg12 mi
12:53 PM86 °FBroken clouds.12 mph71%29.83 "Hg12 mi
11:50 AM86 °FBroken clouds.8 mph74%29.85 "Hg12 mi
10:55 AM86 °FBroken clouds.8 mph74%29.86 "Hg12 mi
9:53 AM85 °FBroken clouds.8 mph77%29.86 "Hg12 mi
8:52 AM80 °FBroken clouds.6 mph87%29.85 "Hg12 mi
7:54 AM79 °FPartly cloudy.3 mph91%29.83 "Hg12 mi
6:53 AM78 °FPassing clouds.2 mph91%29.81 "Hg12 mi
5:51 AM78 °FPartly cloudy.5 mph89%29.80 "Hg12 mi
4:57 AM79 °FPartly cloudy.6 mph87%29.78 "Hg12 mi
3:53 AM79 °FPartly cloudy.7 mph84%29.77 "Hg12 mi
Weather by CustomWeather, © 2014

See weather overviewHow to use our weather pages